HYSIS

Last updated on Sun Apr 12 2026 00:02:35 GMT+0000 (Coordinated Universal Time)

1 43719U 18096A 26101.48862616 .00001403 00000+0 19866-3 0 9999 2 43719 97.9883 168.7443 0001284 66.5095 293.6251 14.78646347397567
UTC large
Height (km)
Speed (km/s)
/
Latitude / Longitude
Inclination (degrees)
Orbital Period (minutes)
Azimuth
Elevation
Range (km)
Doppler Factor

Next 0 passes for location: London (51.5072 / 0.1276)

Sorry there are no passes over London.